sat.trackr.live / text

‹ back to catalog

STARLINK-3569

NORAD 51811 · 2022-017AV

PAYLOAD ACTIVE UNKNOWN

§ Identity

Operator
Country
US
Launch date
2022-02-25
Launch site
AFWTR
Launch vehicle
Mass (kg)
RCS (m²)

Purposes: comms

External: N2YO · Heavens-Above · Gunter

§ Orbital elements

Epoch: 2026-05-25T00:04:19.816896Z

Period
95.44 min
Inclination
53.2167°
Eccentricity
0.0001633
Mean motion
15.08838118 rev/d
Perigee alt
538.6 km
Apogee alt
540.9 km
Semi-major
6,917.9 km
B*
-3.2322e-6
RAAN
356.5359°
Arg perigee
83.6707°
Mean anomaly
276.4471°
Rev number
23,548

§ Raw data

STARLINK-35691 51811U 22017AV  26145.00300714 -.00000339  00000+0 -32322-5 0  99942 51811  53.2167 356.5359 0001633  83.6707 276.4471 15.08838118235488

JSON: /api/v1/satellites/51811 · /tle

For live sub-satellite position, see the globe view (requires WebGL).

§ Visibility from observer

Set your observer location to see the next 7 days of passes ≥ 10°. The values pass through the URL so the page stays shareable.

No JS? Fill the form by hand. The geolocation button needs JavaScript.